Wind_Speed
6 5 5 5 5 5 6 6 6 5 3 3 2 2 2 2 2 2 2 2 1 1 1 1 1 1 1 1 2 2 1 2 2 2 2 3 3 3 2 1 1 2 2
6 6 5 5 6 6 7 7 6 6 5 4 4 4 3 3 3 3 3 2 2 1 1 2 1 2 2 3 2 2 1 1 2 2 2 2 3 2 1 1 1 1 2
6 6 6 6 7 7 7 7 8 8 7 6 6 5 5 4 4 3 3 2 1 1 1 2 2 2 2 2 2 1 1 1 1 2 2 2 2 2 1 1 1 1 1
7 7 7 7 7 7 7 8 8 8 8 7 6 6 5 4 3 3 2 2 2 1 2 2 3 3 3 2 2 2 2 1 1 1 1 2 2 1 2 1 1 2 2
8 8 8 8 8 7 7 7 7 8 8 8 8 7 7 5 4 4 3 3 3 2 2 3 3 3 3 3 2 2 2 2 1 1 0 1 2 2 2 1 1 1 2
9 8 8 8 8 8 7 7 7 7 8 8 8 7 7 6 5 5 5 4 4 3 3 3 3 3 2 3 3 3 2 2 2 1 1 1 1 1 1 1 1 1 1
9 9 9 8 8 8 7 7 7 7 7 7 7 6 7 7 7 6 6 6 5 5 4 4 3 2 3 3 3 2 2 1 2 2 1 0 1 1 0 1 1 1 2
9 9 9 8 8 9 8 8 7 7 6 6 6 6 6 6 6 6 6 6 6 5 5 4 3 3 3 2 2 2 2 2 2 2 1 1 1 1 0 1 1 2 2
8 9 9 9 8 8 7 7 7 6 6 5 5 6 6 6 6 6 6 6 6 6 5 4 4 4 3 3 2 2 3 3 3 3 2 2 1 0 1 1 1 2 2
9 8 9 9 8 8 8 7 7 6 6 5 6 6 6 6 6 6 6 6 6 6 6 5 5 5 4 4 4 4 3 3 3 3 3 2 2 1 1 2 2 2 3
9 8 9 9 8 8 7 7 6 6 5 6 6 6 6 6 6 6 6 6 6 6 6 6 6 5 6 6 5 4 3 3 3 3 2 2 2 2 2 2 3 3 3
9 8 9 9 8 7 7 7 6 5 6 6 6 6 6 6 6 6 5 5 5 6 7 6 7 6 7 7 6 6 4 4 2 3 3 2 2 2 3 3 3 3 3
9 8 8 9 8 8 7 7 6 6 6 5 5 5 5 5 5 5 5 6 6 6 7 7 7 7 6 6 6 6 5 4 3 3 3 3 2 2 3 3 4 3 3
9 9 8 9 8 8 7 7 7 7 6 5 5 4 4 5 5 5 5 6 5 6 7 7 7 6 7 6 6 6 5 4 3 3 3 3 3 3 3 3 3 3 3
9 9 8 8 7 7 7 7 6 6 5 5 4 4 4 4 4 4 4 4 4 5 5 6 6 6 6 6 5 5 4 4 3 3 2 3 3 3 3 3 3 3 3
8 8 7 7 7 7 7 7 6 5 5 4 4 4 4 4 3 3 3 3 3 3 4 5 5 5 5 5 4 4 4 4 4 3 3 3 4 4 4 3 3 3 4
9 8 8 7 7 7 7 7 6 5 5 4 4 4 4 3 3 3 3 2 2 3 3 4 4 4 4 4 4 4 4 4 3 3 3 4 4 4 4 3 3 3 3
9 8 8 7 7 7 7 6 5 5 5 4 4 4 4 3 3 4 3 2 2 2 3 3 3 3 3 3 3 4 5 5 4 4 4 4 4 5 4 4 3 3 3
9 8 7 7 7 7 6 6 5 5 5 5 4 4 4 3 3 3 3 2 2 2 3 3 3 3 3 4 4 4 5 5 5 4 5 5 5 5 5 4 4 4 4
8 8 7 7 7 7 6 6 6 6 5 5 3 2 3 3 3 3 3 3 3 3 3 4 4 4 5 4 5 5 5 5 6 6 6 5 6 5 5 5 5 5 5
8 7 8 7 7 7 6 6 5 5 5 4 3 2 2 3 3 3 4 4 3 4 4 5 5 5 6 6 6 6 6 6 7 7 7 7 7 6 6 6 5 6 6
8 7 8 8 7 7 6 6 6 5 5 4 3 3 3 3 3 4 4 4 4 4 5 5 5 6 7 7 7 7 7 8 8 8 8 8 8 7 7 7 7 7 7
7 7 6 6 7 6 6 6 5 5 4 4 3 3 3 3 3 4 5 5 5 6 6 6 7 7 8 8 8 8 8 8 8 9 9 9 9 9 9 8 8 9 9
7 6 6 6 6 6 6 6 6 6 5 5 4 4 4 4 4 5 6 6 7 7 7 7 8 8 9 9 9 9 9 9 10 10 10 10 10 10 11 10 10 10 10
6 6 6 6 6 6 6 7 7 6 5 5 5 6 6 5 6 6 7 8 8 8 8 9 9 9 10 10 11 10 10 10 11 11 11 11 11 12 12 12 12 12 12
6 7 7 7 7 6 6 7 6 6 5 5 6 6 7 7 7 7 8 8 9 10 10 11 11 11 11 11 12 12 12 12 12 12 12 12 12 13 13 13 13 13 13
Wind_Direction
78 80 84 96 88 86 82 85 87 96 104 118 121 124 122 127 129 113 98 95 90 82 59 39 51 80 89 131 148 157 170 172 186 177 166 161 166 167 168 180 235 221 215
83 87 90 88 86 84 85 79 77 85 97 104 100 92 97 101 99 105 95 88 89 83 50 28 42 69 90 109 120 121 148 177 185 180 174 177 181 169 162 185 217 218 228
83 82 82 81 89 91 87 85 85 81 88 93 88 81 94 108 107 99 92 86 77 56 53 52 59 67 89 113 126 120 111 169 189 167 170 182 186 182 191 215 219 194 193
80 81 82 86 92 96 95 89 89 83 80 82 83 83 93 104 107 96 87 65 44 56 65 67 69 69 84 93 116 119 99 90 121 139 144 164 188 203 224 232 210 214 220
79 84 88 89 91 94 94 91 86 85 81 79 78 79 82 85 89 82 73 66 59 61 70 80 60 65 74 71 80 93 83 70 78 88 167 209 220 246 229 222 237 238 239
82 86 90 88 91 92 94 96 88 87 85 81 78 76 75 74 80 75 67 67 68 71 80 85 71 68 62 62 79 87 86 80 69 69 85 218 215 209 200 207 264 284 264
84 87 91 89 89 89 92 92 91 89 87 81 77 73 74 77 76 68 63 62 63 70 78 79 75 67 56 63 77 79 63 65 61 74 72 100 179 196 208 273 298 309 279
86 86 87 86 87 85 91 93 90 90 85 81 76 73 77 80 77 72 63 59 63 70 72 73 66 60 59 60 66 80 62 54 67 66 79 77 84 77 330 321 318 326 302
87 88 87 86 85 87 91 91 86 84 84 80 75 71 66 75 77 68 64 62 59 59 63 71 65 61 60 58 69 65 73 69 65 60 68 70 69 45 356 339 327 329 316
88 91 88 86 86 86 89 85 83 85 84 78 77 74 72 77 75 69 63 61 61 64 64 65 63 62 64 63 64 68 77 79 66 59 52 50 48 35 4 344 331 325 313
87 89 88 90 89 85 80 72 78 82 80 82 81 78 76 78 75 70 66 64 65 61 61 65 64 62 65 63 64 70 76 88 72 60 41 39 35 26 11 353 343 328 313
88 88 88 90 87 82 74 67 68 72 84 86 80 74 73 78 76 69 65 61 59 58 60 66 64 66 70 68 67 72 76 79 71 59 43 31 20 10 1 356 348 338 327
87 87 88 90 83 76 70 65 73 77 80 81 81 77 73 75 75 69 65 61 60 60 61 65 63 63 70 69 67 70 67 64 55 47 36 30 22 15 5 360 350 342 337
85 85 86 86 80 74 66 64 74 80 78 78 80 79 79 78 78 75 70 65 62 60 61 61 63 66 67 66 63 63 56 50 38 38 34 24 15 11 10 1 353 352 345
78 78 80 82 76 70 65 72 81 82 81 78 75 74 76 75 74 72 68 63 60 57 56 57 57 59 55 57 57 52 46 34 20 18 21 12 1 358 355 350 349 353 343
68 69 74 73 68 61 67 78 75 78 78 73 75 75 73 66 60 60 59 64 59 57 50 49 41 42 42 41 43 35 25 19 16 14 12 3 356 348 339 337 336 336 338
60 64 66 64 58 59 67 74 69 75 76 70 77 79 74 63 46 47 52 49 47 46 41 34 31 26 26 27 27 22 12 5 3 8 357 355 353 347 333 326 329 324 330
57 58 58 59 59 61 61 61 59 69 73 66 65 67 61 56 48 33 26 24 25 20 13 6 14 6 7 2 1 2 357 353 351 353 349 345 341 340 335 322 316 316 316
55 54 53 52 55 55 57 57 60 62 58 57 50 51 44 46 43 29 21 8 352 346 342 338 340 343 343 338 334 336 338 337 332 334 339 335 331 331 327 321 311 310 312
47 45 45 49 53 51 55 52 51 43 40 38 37 40 30 27 25 22 16 4 350 336 325 325 321 322 320 319 316 317 317 318 317 319 322 322 324 319 315 312 307 305 305
43 43 40 45 51 48 43 38 34 29 29 26 23 23 18 19 9 1 358 356 346 334 329 328 321 313 310 308 306 306 305 306 306 306 310 308 312 309 305 299 293 296 297
45 45 40 37 40 33 24 18 17 19 22 19 17 3 358 12 4 353 340 334 336 330 325 323 321 310 306 305 303 301 300 300 299 301 304 304 304 302 297 289 283 290 294
34 37 38 28 23 18 15 13 9 3 4 9 355 343 357 352 336 327 326 323 322 317 315 314 312 307 303 301 299 295 293 293 296 300 300 299 302 300 293 287 282 284 287
23 20 23 13 9 14 16 11 2 354 354 357 346 337 326 318 319 318 317 319 315 312 309 307 306 301 298 297 297 294 291 293 297 299 299 298 299 299 293 285 285 284 285
12 9 10 3 356 357 2 359 358 356 353 352 345 344 334 317 310 309 309 311 309 308 306 302 301 297 293 290 290 291 290 292 296 297 299 298 295 294 291 286 284 283 286
7 3 357 351 349 353 357 356 356 357 353 346 340 338 336 326 314 312 308 307 304 302 302 301 298 294 292 289 287 286 287 287 289 291 292 293 294 294 291 286 285 282 284
Height
5884 5883 5883 5883 5884 5884 5884 5884 5884 5884 5884 5884 5885 5885 5885 5885 5885 5885 5885 5885 5885 5885 5884 5883 5883 5883 5882 5882 5882 5883 5883 5883 5883 5883 5883 5882 5882 5882 5882 5882 5882 5882 5882
5885 5884 5884 5884 5885 5885 5885 5885 5885 5885 5885 5885 5885 5885 5885 5885 5886 5886 5886 5886 5885 5885 5885 5884 5883 5883 5883 5882 5882 5882 5882 5882 5882 5882 5882 5882 5882 5882 5882 5882 5882 5882 5882
5885 5885 5885 5885 5886 5886 5886 5886 5887 5886 5886 5886 5886 5886 5886 5886 5886 5886 5886 5886 5886 5885 5885 5884 5884 5883 5882 5882 5882 5882 5882 5882 5882 5882 5882 5882 5882 5882 5882 5882 5882 5881 5881
5886 5886 5886 5886 5887 5887 5887 5888 5888 5888 5887 5887 5887 5887 5887 5887 5887 5887 5887 5887 5886 5886 5885 5885 5884 5883 5883 5882 5882 5882 5882 5882 5881 5881 5881 5882 5882 5882 5882 5881 5881 5881 5881
5887 5887 5887 5887 5888 5888 5888 5889 5889 5889 5889 5889 5889 5888 5888 5888 5888 5888 5887 5887 5887 5886 5885 5885 5884 5884 5883 5883 5883 5882 5882 5882 5882 5881 5882 5882 5882 5881 5881 5881 5881 5881 5880
5888 5888 5888 5888 5889 5889 5889 5890 5890 5890 5890 5890 5890 5890 5889 5889 5889 5888 5888 5887 5887 5886 5886 5885 5885 5885 5884 5884 5883 5883 5882 5882 5882 5882 5881 5881 5881 5881 5881 5881 5880 5880 5880
5889 5890 5890 5890 5890 5890 5890 5890 5891 5891 5891 5891 5891 5891 5891 5890 5890 5889 5889 5888 5888 5887 5886 5886 5886 5885 5884 5884 5883 5883 5882 5882 5882 5882 5881 5881 5881 5881 5881 5880 5880 5880 5879
5891 5891 5891 5891 5892 5891 5891 5892 5892 5892 5892 5892 5892 5892 5891 5891 5891 5891 5890 5889 5888 5887 5887 5887 5886 5885 5884 5884 5883 5883 5882 5882 5882 5881 5881 5881 5881 5880 5880 5880 5880 5879 5879
5892 5892 5892 5893 5893 5893 5893 5893 5893 5893 5893 5893 5893 5892 5892 5892 5892 5892 5891 5890 5889 5888 5887 5887 5886 5885 5884 5883 5883 5882 5882 5882 5882 5882 5881 5881 5881 5880 5880 5879 5879 5878 5878
5893 5893 5893 5894 5894 5894 5894 5894 5894 5894 5894 5894 5893 5893 5893 5893 5893 5893 5892 5891 5890 5889 5888 5887 5886 5885 5884 5883 5882 5881 5882 5882 5882 5882 5882 5881 5881 5880 5879 5879 5878 5878 5877
5894 5894 5894 5895 5895 5895 5895 5895 5894 5894 5894 5894 5894 5894 5894 5893 5893 5893 5893 5892 5891 5890 5889 5888 5887 5885 5884 5883 5882 5881 5881 5882 5882 5882 5882 5881 5881 5880 5879 5878 5878 5877 5877
5895 5895 5895 5896 5896 5896 5896 5895 5895 5895 5895 5895 5895 5895 5895 5894 5894 5894 5893 5892 5891 5890 5889 5888 5887 5886 5885 5883 5882 5882 5882 5882 5883 5882 5882 5881 5881 5880 5879 5878 5877 5876 5876
5897 5897 5896 5897 5897 5897 5897 5896 5896 5896 5896 5896 5896 5896 5895 5895 5895 5894 5894 5893 5892 5891 5890 5889 5888 5887 5886 5884 5883 5883 5882 5883 5883 5883 5882 5881 5881 5880 5879 5878 5877 5876 5875
5898 5898 5897 5897 5897 5897 5897 5897 5897 5897 5897 5896 5896 5896 5896 5896 5895 5895 5894 5894 5893 5892 5891 5890 5889 5888 5887 5886 5885 5884 5884 5884 5883 5883 5882 5881 5880 5880 5879 5878 5877 5876 5875
5899 5898 5898 5898 5898 5898 5898 5898 5897 5897 5897 5897 5897 5896 5896 5896 5896 5895 5894 5894 5893 5893 5892 5891 5889 5888 5888 5887 5886 5885 5885 5884 5884 5883 5882 5881 5880 5879 5878 5877 5877 5876 5874
5900 5899 5899 5899 5898 5898 5898 5898 5898 5897 5897 5897 5897 5897 5896 5896 5896 5895 5894 5894 5893 5893 5892 5891 5890 5889 5888 5887 5886 5885 5885 5884 5883 5882 5882 5881 5880 5879 5878 5877 5876 5875 5874
5901 5900 5900 5899 5899 5899 5898 5898 5898 5897 5897 5897 5897 5897 5896 5896 5896 5895 5894 5894 5893 5893 5892 5891 5890 5889 5888 5887 5886 5885 5885 5884 5883 5882 5881 5880 5879 5878 5877 5876 5875 5874 5873
5902 5901 5900 5900 5899 5899 5898 5898 5898 5898 5897 5897 5897 5896 5896 5896 5895 5895 5894 5893 5893 5892 5891 5891 5890 5889 5888 5887 5886 5885 5884 5883 5882 5881 5880 5880 5878 5877 5876 5875 5874 5873 5872
5903 5902 5901 5900 5900 5899 5899 5899 5898 5898 5898 5897 5897 5896 5896 5895 5894 5894 5894 5893 5892 5891 5891 5890 5889 5888 5887 5887 5886 5885 5884 5883 5882 5881 5880 5879 5878 5877 5875 5874 5873 5872 5871
5904 5903 5902 5901 5900 5900 5899 5899 5898 5898 5897 5897 5896 5896 5896 5895 5894 5893 5893 5892 5891 5890 5890 5889 5888 5887 5886 5886 5885 5884 5883 5882 5881 5880 5879 5878 5877 5875 5874 5873 5872 5871 5870
5905 5904 5903 5901 5901 5900 5900 5899 5898 5898 5897 5897 5896 5896 5895 5894 5893 5892 5892 5891 5890 5889 5889 5888 5887 5886 5885 5885 5884 5883 5882 5881 5880 5879 5878 5876 5875 5874 5873 5872 5871 5870 5869
5906 5904 5903 5902 5901 5901 5900 5899 5898 5897 5896 5896 5895 5894 5893 5893 5892 5891 5891 5890 5889 5888 5887 5887 5886 5885 5884 5883 5882 5881 5881 5880 5879 5877 5876 5875 5873 5872 5871 5870 5869 5868 5867
5906 5905 5904 5903 5902 5900 5899 5898 5897 5896 5895 5895 5894 5894 5893 5892 5891 5890 5890 5889 5888 5887 5886 5885 5884 5883 5882 5881 5880 5880 5879 5878 5877 5876 5874 5873 5872 5870 5869 5868 5867 5866 5865
5906 5905 5903 5903 5901 5900 5899 5898 5896 5895 5894 5893 5893 5892 5892 5890 5889 5888 5888 5887 5886 5885 5884 5883 5882 5881 5880 5879 5878 5877 5877 5875 5874 5873 5872 5870 5869 5868 5866 5865 5864 5863 5862
5905 5904 5903 5902 5901 5899 5898 5897 5896 5894 5893 5893 5892 5891 5890 5889 5888 5887 5886 5885 5884 5883 5881 5880 5879 5878 5877 5876 5875 5874 5873 5872 5871 5870 5869 5868 5866 5865 5863 5862 5861 5860 5859
5905 5904 5903 5902 5899 5898 5897 5896 5895 5893 5893 5892 5891 5889 5888 5887 5886 5885 5884 5883 5881 5880 5879 5878 5876 5875 5874 5873 5872 5871 5870 5869 5868 5867 5866 5864 5863 5862 5860 5859 5858 5857 5856